Change the Weather History Date:

Tuesday, December 4, 2012

  Actual Average (KHAI) Record (KHAI)
Temperature  
Mean Temperature 50 °F -  
Max Temperature 62 °F 39 °F 63 °F (1970)
Min Temperature 39 °F 23 °F 9 °F (1966)
Degree Days  
Heating Degree Days 14    
Moisture  
Dew Point 43 °F    
Average Humidity 79    
Maximum Humidity 100    
Minimum Humidity 54    
Precipitation  
Precipitation 0.00 in - - ()
Sea Level Pressure  
Sea Level Pressure 30.03 in    
Wind  
Wind Speed 11 mph (West)    
Max Wind Speed 21 mph    
Max Gust Speed 32 mph    
Visibility 9 miles    
Events Rain    
Averages and records for this station are not official NWS values.
T = Trace of Precipitation, MM = Missing Value Source: NWS Daily Summary

Daily Weather History Graph

Daily Weather History Graph

Search for Another Location

Airport or City:

Trip Planner

Search our weather history database for the weather conditions in past years. The results will help you decide how hot, cold, wet, or windy it might be!

Date:

Astronomy

Dec. 04, 2012 Rise Set
Actual Time 7:53 AM EST 5:11 PM EST
Civil Twilight 7:21 AM EST 5:42 PM EST
Nautical Twilight 6:47 AM EST 6:17 PM EST
Astronomical Twilight 6:13 AM EST 6:50 PM EST
Moon 11:01 PM EST (12/4) 11:44 AM EST (12/4)
Length of Visible Light 10h 20m
Length of Day
9h 17m
Waning Gibbous, 69% of the Moon is Illuminated
Dec 4
Waning Gibbous
Dec 6
Last Quarter
Dec 13
New
Dec 20
First Quarter
Dec 28
Full

Hourly Weather History & Observations

Time (EST) Temp. Windchill Dew Point Humidity Pressure Visibility Wind Dir Wind Speed Gust Speed Precip Events Conditions
12:15 AM 62.6 °F - 55.4 °F 77% 29.92 in 10.0 mi SW 20.7 mph 28.8 mph N/A   Overcast
12:35 AM 62.6 °F - 55.4 °F 77% 29.91 in 10.0 mi SW 16.1 mph 23.0 mph N/A   Overcast
12:55 AM 62.6 °F - 55.4 °F 77% 29.91 in 10.0 mi SW 18.4 mph 24.2 mph N/A   Overcast
1:14 AM 62.6 °F - 57.2 °F 82% 29.91 in 10.0 mi SW 15.0 mph 20.7 mph N/A   Mostly Cloudy
1:35 AM 60.8 °F - 57.2 °F 88% 29.91 in 7.0 mi SW 15.0 mph - N/A Rain Rain
1:55 AM 60.8 °F - 57.2 °F 88% 29.91 in 10.0 mi SW 13.8 mph 17.3 mph N/A   Overcast
2:15 AM 60.8 °F - 57.2 °F 88% 29.91 in 10.0 mi SW 12.7 mph - N/A   Overcast
2:35 AM 60.8 °F - 57.2 °F 88% 29.91 in 10.0 mi SW 13.8 mph - N/A   Overcast
2:55 AM 60.8 °F - 55.4 °F 82% 29.92 in 10.0 mi SW 13.8 mph - N/A   Overcast
3:15 AM 60.8 °F - 55.4 °F 82% 29.91 in 10.0 mi SW 11.5 mph - N/A   Overcast
3:55 AM 60.8 °F - 55.4 °F 82% 29.91 in 10.0 mi SW 13.8 mph 18.4 mph N/A Rain Rain
4:15 AM 59.0 °F - 55.4 °F 88% 29.91 in 7.0 mi SW 11.5 mph - N/A Rain Rain
4:35 AM 57.2 °F - 55.4 °F 94% 29.90 in 5.0 mi SW 9.2 mph - N/A Rain Heavy Rain
5:15 AM 57.2 °F - 55.4 °F 94% 29.91 in 7.0 mi SW 8.1 mph - N/A   Overcast
5:35 AM 57.2 °F - 55.4 °F 94% 29.92 in 4.0 mi NW 19.6 mph 32.2 mph N/A Rain Heavy Rain
5:55 AM 53.6 °F - 51.8 °F 94% 29.94 in 5.0 mi NNW 8.1 mph 16.1 mph N/A Rain Light Rain
6:15 AM 51.8 °F - 48.2 °F 88% 29.95 in 5.0 mi NNW 12.7 mph 17.3 mph N/A Rain Light Rain
6:35 AM 50.0 °F - 48.2 °F 94% 29.97 in 5.0 mi NW 5.8 mph - N/A Rain Rain
6:55 AM 48.2 °F - 46.4 °F 93% 30.01 in 3.0 mi WNW 8.1 mph - N/A Rain Rain
7:15 AM 48.2 °F - 46.4 °F 93% 30.00 in 4.0 mi NNW 10.4 mph 16.1 mph N/A Rain Heavy Rain
7:34 AM 46.4 °F 40.7 °F 46.4 °F 100% 30.01 in 5.0 mi NW 12.7 mph - N/A Rain Rain
7:55 AM 46.4 °F 42.4 °F 44.6 °F 93% 30.02 in 7.0 mi NNW 8.1 mph - N/A Rain Light Rain
8:15 AM 46.4 °F 42.9 °F 44.6 °F 93% 30.02 in 10.0 mi North 6.9 mph - N/A Rain Rain
8:34 AM 46.4 °F 45.2 °F 42.8 °F 87% 30.02 in 10.0 mi North 3.5 mph - N/A Rain Light Rain
8:55 AM 46.4 °F - 42.8 °F 87% 30.02 in 10.0 mi Calm Calm - N/A Rain Light Rain
9:15 AM 44.6 °F - 42.8 °F 93% 30.02 in 10.0 mi Calm Calm - N/A Rain Light Rain
9:35 AM 44.6 °F - 42.8 °F 93% 30.04 in 10.0 mi Calm Calm - N/A Rain Light Rain
9:55 AM 44.6 °F - 42.8 °F 93% 30.05 in 10.0 mi Calm Calm - N/A Rain Light Rain
10:15 AM 46.4 °F - 42.8 °F 87% 30.05 in 10.0 mi Calm Calm - N/A Rain Light Rain
10:35 AM 46.4 °F 44.3 °F 44.6 °F 93% 30.05 in 10.0 mi WSW 4.6 mph - N/A   Clear
10:55 AM 46.4 °F 44.3 °F 44.6 °F 93% 30.05 in 10.0 mi West 4.6 mph - N/A   Scattered Clouds
11:15 AM 46.4 °F 44.3 °F 44.6 °F 93% 30.05 in 10.0 mi West 4.6 mph - N/A   Clear
11:35 AM 46.4 °F 43.5 °F 44.6 °F 93% 30.04 in 10.0 mi West 5.8 mph - N/A   Mostly Cloudy
11:55 AM 46.4 °F 44.3 °F 44.6 °F 93% 30.04 in 10.0 mi West 4.6 mph - N/A   Overcast
12:15 PM 46.4 °F 43.5 °F 44.6 °F 93% 30.03 in 10.0 mi West 5.8 mph - N/A   Scattered Clouds
12:35 PM 48.2 °F - 44.6 °F 87% 30.03 in 10.0 mi West 6.9 mph - N/A   Clear
12:55 PM 48.2 °F - 44.6 °F 87% 30.02 in 10.0 mi West 8.1 mph - N/A   Scattered Clouds
1:15 PM 48.2 °F - 44.6 °F 87% 30.03 in 10.0 mi West 6.9 mph - N/A   Scattered Clouds
1:35 PM 48.2 °F - 42.8 °F 82% 30.04 in 10.0 mi West 10.4 mph - N/A   Scattered Clouds
1:55 PM 48.2 °F - 42.8 °F 82% 30.04 in 10.0 mi West 8.1 mph - N/A   Scattered Clouds
2:15 PM 51.8 °F - 42.8 °F 71% 30.03 in 10.0 mi West 8.1 mph - N/A   Scattered Clouds
2:34 PM 51.8 °F - 39.2 °F 62% 30.03 in 10.0 mi WNW 9.2 mph - N/A   Mostly Cloudy
2:55 PM 50.0 °F - 39.2 °F 66% 30.04 in 10.0 mi WNW 5.8 mph - N/A   Mostly Cloudy
3:15 PM 51.8 °F - 39.2 °F 62% 30.04 in 10.0 mi WNW 6.9 mph - N/A   Scattered Clouds
3:35 PM 50.0 °F - 37.4 °F 62% 30.04 in 10.0 mi WNW 5.8 mph - N/A   Clear
3:55 PM 51.8 °F - 37.4 °F 58% 30.05 in 10.0 mi WNW 6.9 mph - N/A   Clear
4:14 PM 50.0 °F - 37.4 °F 62% 30.06 in 10.0 mi WNW 4.6 mph - N/A   Clear
4:35 PM 50.0 °F - 33.8 °F 54% 30.06 in 10.0 mi West 4.6 mph - N/A   Clear
4:55 PM 48.2 °F - 33.8 °F 58% 30.08 in 10.0 mi West 5.8 mph - N/A   Clear
5:15 PM 48.2 °F - 33.8 °F 58% 30.08 in 10.0 mi West 8.1 mph - N/A   Clear
5:35 PM 46.4 °F 44.3 °F 33.8 °F 62% 30.08 in 10.0 mi West 4.6 mph - N/A   Clear
5:55 PM 46.4 °F 42.9 °F 33.8 °F 62% 30.09 in 10.0 mi West 6.9 mph - N/A   Clear
6:15 PM 44.6 °F 41.4 °F 33.8 °F 66% 30.09 in 10.0 mi West 5.8 mph - N/A   Clear
6:35 PM 44.6 °F 42.2 °F 33.8 °F 66% 30.09 in 10.0 mi West 4.6 mph - N/A   Clear
6:54 PM 42.8 °F 39.3 °F 33.8 °F 70% 30.10 in 10.0 mi WSW 5.8 mph - N/A   Clear
7:15 PM 42.8 °F 40.1 °F 33.8 °F 70% 30.10 in 10.0 mi West 4.6 mph - N/A   Clear
7:35 PM 42.8 °F 39.3 °F 33.8 °F 70% 30.11 in 10.0 mi West 5.8 mph - N/A   Clear
7:54 PM 42.8 °F 38.6 °F 33.8 °F 70% 30.10 in 10.0 mi West 6.9 mph - N/A   Clear
8:15 PM 44.6 °F 40.7 °F 33.8 °F 66% 30.11 in 10.0 mi West 6.9 mph - N/A   Clear
8:34 PM 44.6 °F 40.7 °F 33.8 °F 66% 30.11 in 10.0 mi West 6.9 mph - N/A   Clear
8:55 PM 44.6 °F 42.2 °F 33.8 °F 66% 30.11 in 10.0 mi West 4.6 mph - N/A   Clear
9:15 PM 42.8 °F 39.3 °F 33.8 °F 70% 30.12 in 10.0 mi West 5.8 mph - N/A   Clear
9:34 PM 42.8 °F 41.1 °F 33.8 °F 70% 30.12 in 10.0 mi West 3.5 mph - N/A   Clear
9:55 PM 42.8 °F 41.1 °F 33.8 °F 70% 30.13 in 10.0 mi West 3.5 mph - N/A   Clear
10:15 PM 42.8 °F 41.1 °F 33.8 °F 70% 30.13 in 10.0 mi West 3.5 mph - N/A   Clear
10:35 PM 42.8 °F 40.1 °F 33.8 °F 70% 30.14 in 10.0 mi NW 4.6 mph - N/A   Clear
10:55 PM 39.2 °F 33.0 °F 33.8 °F 81% 30.14 in 10.0 mi NW 9.2 mph - N/A   Clear
11:15 PM 42.8 °F 39.3 °F 32.0 °F 66% 30.15 in 10.0 mi WNW 5.8 mph - N/A   Clear
11:35 PM 42.8 °F 39.3 °F 30.2 °F 61% 30.17 in 10.0 mi WNW 5.8 mph - N/A   Clear
11:55 PM 41.0 °F 34.3 °F 30.2 °F 65% 30.17 in 10.0 mi NW 11.5 mph 16.1 mph N/A   Clear